STARLINK-6184, 57081

Orbit data source: Space-Track

STARLINK-6184, 57081 is a payload satellite owned by SpaceX/Seattle (US) in LEO that was launched on Thu, 22 Jun 2023 UTC via an FALCON 9 launch vehicle from the Air Force Western Test Range (AFWTR). Payload-class satellites include a variety of spacecraft equipped with specific instruments for various scientific and technological missions. These include communications satellites like Starlink; space stations such as the ISS; scientific satellites like the Hubble; Earth observation satellites from companies like Planet Labs, Umbra, and HawkEye 360; GPS; miniature CubeSats for education and research; and military/defense satellites.

Loading next visibility...
Identifier
57081, 2023-088AK
Orbit
LEO
Country
Flag of USUS
Related business
Manufacturer
SpaceX/Seattle
Mission
Operational Commercial Communications
Bus & Motor
STARLINK, Unknown motor
Mass
305 kg wet, ~290 kg dry
Launch date (UTC)
Icon of a cake. It is the launch day of the satellite!2023-06-22 (3 years ago)
Launch vehicle
FALCON 9
Launch site
Air Force Western Test Range (AFWTR)
Object type
Payload
Rocket body
Debris
Shape & HBR
Box + 1 Pan, 10.1 m
Radar Cross Section
11.087 m², Large (>1 m²)

Expand to show TLE details & history
Last TLE update: 2 days ago

TLE from 2 days ago
0 STARLINK-6184
1 57081U 23088AK  26171.16069130 -.00000120  00000-0  51673-5 0  9996
2 57081  43.0041 237.2822 0001017 279.1424  80.9313 15.27576840166179
Epoch: 2026-06-20T03:51Z
TLE epoch observation values (Epoch: 2026-06-20T03:51:23.728Z)
Latitude
0.00001°
Longitude
-88.94595°
Altitude
482.725 km
Speed
7.626 km/s
True Right ascension
15h 49m 07s
True Declination
0° 00' 00"
Sunlit
Object was in full shadow at epoch
Visualization orbit readout
Latitude
Unknown
Longitude
Unknown
Altitude
Unknown
Speed
Unknown
Apparent Right ascension
Unknown
Apparent Declination
Unknown
Sunlit
N/A
Visualization observer readout
Local Sidereal Time
21:57:40
Azimuth
Unknown
Elevation
Unknown
Doppler factor
Unknown
Orbital elements
Apogee altitude
485.701 km
Perigee altitude
484.305 km
Semi-major axis
6,863.14 km
Eccentricity
0.0001
Inclination
43.0041°
RAAN
237.2822°
Arg. of periapsis
279.1424°
True anomaly
80.94281°
Mean anomaly
80.9313°
Eccentric anomaly
80.93705°
Mean motion
3.81732 °/min
Orbital period
94.31 mins
BSTAR
0.0000051673
Loading maneuver chart data...
Computing Atmospheric mass density...
Loading historical data...
Loading historical data...
Loading historical data...
Loading historical data...
Loading historical data...
Loading historical data...
Loading historical data...

Documentation

Showing up to 5 results
|